Weather History for KGTF - January, 2013

Change the Weather History Date:

Tuesday, January 8, 2013

  Actual Average Record
Temperature  
Mean Temperature 37 °F 25 °F  
Max Temperature 42 °F 35 °F 58 °F (1893)
Min Temperature 32 °F 14 °F -30 °F (1909)
Degree Days  
Heating Degree Days 28 40  
Month to date heating degree days 269 325  
Since 1 July heating degree days 3092 3542  
Cooling Degree Days 0 0  
Month to date cooling degree days 0 0  
Year to date cooling degree days 0 0  
Moisture  
Dew Point 21 °F    
Average Humidity 50    
Maximum Humidity 69    
Minimum Humidity 30    
Precipitation  
Precipitation 0.00 in 0.02 in 0.26 in (1978)
Month to date precipitation T 0.14  
Year to date precipitation T 0.14  
Snow  
Snow 0.00 in 0.30 in 3.00 in (1909)
Month to date snowfall T 2.4  
Since 1 July snowfall 32.3 25.6  
Snow Depth T in    
Sea Level Pressure  
Sea Level Pressure 29.90 in    
Wind  
Wind Speed 15 mph (WSW)    
Max Wind Speed 28 mph    
Max Gust Speed 35 mph    
Visibility 10 miles    
Events      
T = Trace of Precipitation, MM = Missing Value Source: NWS Daily Summary

Daily Weather History Graph

Daily Weather History Graph

Search for Another Location

Airport or City:

Trip Planner

Search our weather history database for the weather conditions in past years. The results will help you decide how hot, cold, wet, or windy it might be!

Date:

Astronomy

Jan. 08, 2013 Rise Set
Actual Time 8:11 AM MST 4:53 PM MST
Civil Twilight 7:36 AM MST 5:28 PM MST
Nautical Twilight 6:58 AM MST 6:07 PM MST
Astronomical Twilight 6:21 AM MST 6:44 PM MST
Moon 4:47 AM MST (1/8) 1:59 PM MST (1/8)
Length of Visible Light 9h 51m
Length of Day
8h 41m
Waning Crescent, 13% of the Moon is Illuminated
Jan 8
Waning Crescent
Jan 11
New
Jan 18
First Quarter
Jan 26
Full
Feb 3
Last Quarter

Hourly Weather History & Observations

Time (MST) Temp. Windchill Dew Point Humidity Pressure Visibility Wind Dir Wind Speed Gust Speed Precip Events Conditions
12:53 AM 41.0 °F 34.3 °F 26.1 °F 55% 29.69 in 10.0 mi West 11.5 mph - N/A   Overcast
1:53 AM 39.0 °F 31.4 °F 26.1 °F 60% 29.71 in 10.0 mi SW 12.7 mph - N/A   Overcast
2:53 AM 36.0 °F 28.0 °F 25.0 °F 64% 29.74 in 10.0 mi SW 11.5 mph - N/A   Mostly Cloudy
3:53 AM 36.0 °F 27.1 °F 25.0 °F 64% 29.76 in 10.0 mi WSW 13.8 mph - N/A   Mostly Cloudy
4:53 AM 34.0 °F 26.0 °F 24.1 °F 67% 29.78 in 10.0 mi SW 10.4 mph - N/A   Overcast
5:53 AM 36.0 °F 26.3 °F 23.0 °F 59% 29.80 in 10.0 mi West 16.1 mph - N/A   Mostly Cloudy
6:53 AM 33.8 °F 23.2 °F 21.2 °F 60% 29.75 in 10.0 mi WSW 17.3 mph - N/A   Scattered Clouds
7:53 AM 34.0 °F 22.7 °F 21.0 °F 59% 29.86 in 10.0 mi West 19.6 mph - N/A   Clear
8:53 AM 34.0 °F 24.2 °F 21.0 °F 59% 29.91 in 10.0 mi WSW 15.0 mph - N/A   Clear
9:53 AM 37.0 °F 27.0 °F 19.0 °F 48% 29.94 in 10.0 mi West 18.4 mph - N/A   Clear
10:53 AM 39.0 °F 28.8 °F 17.1 °F 41% 29.96 in 10.0 mi West 21.9 mph 26.5 mph N/A   Clear
11:53 AM 39.9 °F 29.5 °F 14.0 °F 35% 29.96 in 10.0 mi West 24.2 mph 32.2 mph N/A   Clear
12:53 PM 42.1 °F 32.6 °F 14.0 °F 32% 29.96 in 10.0 mi WSW 23.0 mph 33.4 mph N/A   Clear
1:53 PM 42.1 °F 33.9 °F 17.1 °F 37% 29.99 in 10.0 mi WSW 17.3 mph - N/A   Clear
2:53 PM 41.0 °F 33.5 °F 17.1 °F 38% 30.01 in 10.0 mi WSW 13.8 mph - N/A   Overcast
3:53 PM 39.0 °F 30.3 °F 17.1 °F 41% 30.01 in 10.0 mi WSW 16.1 mph - N/A   Overcast
4:53 PM 39.0 °F 31.0 °F 18.0 °F 43% 30.03 in 10.0 mi SW 13.8 mph - N/A   Partly Cloudy
5:53 PM 37.9 °F 32.7 °F 19.0 °F 47% 30.01 in 10.0 mi SW 6.9 mph - N/A   Overcast
6:53 PM 37.0 °F 29.3 °F 21.0 °F 52% 29.99 in 10.0 mi SSW 11.5 mph - N/A   Partly Cloudy
7:53 PM 35.1 °F 27.4 °F 21.0 °F 57% 29.98 in 10.0 mi SSW 10.4 mph - N/A   Clear
8:53 PM 34.0 °F 24.6 °F 21.9 °F 61% 29.97 in 10.0 mi SSW 13.8 mph - N/A   Clear
9:53 PM 39.0 °F 31.0 °F 25.0 °F 57% 29.91 in 10.0 mi SSW 13.8 mph - N/A   Clear
10:53 PM 39.9 °F 31.1 °F 26.1 °F 58% 29.90 in 10.0 mi SSW 17.3 mph - N/A   Clear
11:53 PM 39.9 °F 31.4 °F 26.1 °F 58% 29.89 in 10.0 mi SSW 16.1 mph - N/A   Clear